Regional Weather Roundup
Issued by NWS

Current Version | Previous Version | Text Only | Print | Product List | Glossary On
Versions: 1 2 3 4 5 6 7 8 9 10 11 12 13 14 15 16 17 18 19 20 21 22 23 24 25 26 27 28 29 30 31 32 33 34 35 36 37 38 39 40 41 42 43 44 45 46 47 48 49 50
000
ASUS44 KOUN 041500
RWROK

WEATHER ROUNDUP FOR OKLAHOMA
NATIONAL WEATHER SERVICE NORMAN OK
1000 AM CDT WED MAY 04 2016

NOTE: "FAIR" INDICATES FEW OR NO CLOUDS BELOW 12,000 FEET WITH NO
      SIGNIFICANT WEATHER AND/OR OBSTRUCTIONS TO VISIBILITY.

OKZ001>007-009>012-014-015-017-041600-
NORTHWEST OKLAHOMA AND THE PANHANDLE

CITY           SKY/WX    TMP DP  RH WIND       PRES   REMARKS
GAGE           SUNNY     69  43  38 NW13      30.13S
GUYMON         SUNNY     65  42  43 N9        30.18S
$$

OKZ016-021>023-033>039-044-045-041600-
SOUTHWEST OKLAHOMA

CITY           SKY/WX    TMP DP  RH WIND       PRES   REMARKS
LAWTON/REGL    SUNNY     69  48  47 N12       30.09S
FREDERICK      SUNNY     67  47  48 NW14      30.09S
CLINTON        SUNNY     67  45  45 NW14      30.12F
HOBART         SUNNY     65  49  56 NW10      30.12S
$$

OKZ018>020-024>031-041600-
CENTRAL OKLAHOMA

CITY           SKY/WX    TMP DP  RH WIND       PRES   REMARKS
OKLAHOMA CITY  SUNNY     68  49  50 NW14      30.06S
OKC/WILEY POST SUNNY     68  48  48 NW13      30.06F
STILLWATER     SUNNY     69  49  48 NW12      30.03S
GUTHRIE        SUNNY     66  49  54 NW9       30.05F
$$

OKZ008-013-054>072-041600-
NORTHEAST OKLAHOMA

CITY           SKY/WX    TMP DP  RH WIND       PRES   REMARKS
TULSA          SUNNY     69  51  52 W10       29.97S
TULSA/JONES    SUNNY     69  49  48 CALM      29.99F
PONCA CITY     SUNNY     66  49  54 NW13      30.02S
BARTLESVILLE   SUNNY     70  47  43 VRB5      29.99S
MUSKOGEE       SUNNY     69  53  56 W12       30.00S
$$

OKZ032-040>043-046>053-073>077-041600-
SOUTH CENTRAL/SOUTHEAST OKLAHOMA

CITY           SKY/WX    TMP DP  RH WIND       PRES   REMARKS
MCALESTER      MOSUNNY   67  54  63 W8        30.02S
$$





USA.gov is the U.S. government's official web portal to all federal, state and local government web resources and services.